Tracking 26303 objects as of 1-Dec-2022
HD Live streaming from Space Station
objects crossing your sky now

CZ-4C DEB

Track CZ-4C DEB now!
10-day predictions


NORAD ID: 39243
Int'l Code: 2013-046E
Perigee: 860.6 km
Apogee: 1,339.1 km
Inclination: 63.4 °
Period: 107.1 minutes
Semi major axis: 7470 km
RCS: Unknown
Launch date: September 1, 2013
Source: People's Republic of China (PRC)
Launch site: Jiuquan Satellite Launch Center, China (JSC)

Note: This is SATELLITE DEBRIS
aabbcc
Your satellite tracking list
Your tracking list is empty




NASA's NSSDC Master Catalog

Two Line Element Set (TLE):
1 39243U 13046E   22335.37082295  .00000006  00000-0  12145-3 0  9998
2 39243  63.3981 195.8666 0320292   8.4106 352.2111 13.44459530454018
Source of the keplerian elements: AFSPC